Topeka Forbes, KS

4:59 PM CDT on September 19, 2017 (GMT -0500)
Forbes

Weather History for KFOE - January, 2013

Change the Weather History Date:

Saturday, January 5, 2013

  Actual Average Record
Temperature  
Mean Temperature 37 °F -  
Max Temperature 46 °F 36 °F 69 °F (1956)
Min Temperature 28 °F 17 °F -9 °F (1959)
Degree Days  
Heating Degree Days 28    
Moisture  
Dew Point 27 °F    
Average Humidity 71    
Maximum Humidity 82    
Minimum Humidity 56    
Precipitation  
Precipitation 0.00 in - - ()
Sea Level Pressure  
Sea Level Pressure 30.17 in    
Wind  
Wind Speed 11 mph (SW)    
Max Wind Speed 17 mph    
Max Gust Speed 25 mph    
Visibility 10 miles    
Events      
Averages and records for this station are not official NWS values.
T = Trace of Precipitation, MM = Missing Value Source: NWS Daily Summary

Daily Weather History Graph

Daily Weather History Graph

Search for Another Location

Airport or City:

Trip Planner

Search our weather history database for the weather conditions in past years. The results will help you decide how hot, cold, wet, or windy it might be!

Date:

Astronomy

Jan. 05, 2013 Rise Set
Actual Time 7:41 AM CST 5:14 PM CST
Civil Twilight 7:11 AM CST 5:44 PM CST
Nautical Twilight 6:38 AM CST 6:17 PM CST
Astronomical Twilight 6:06 AM CST 6:50 PM CST
Moon 12:51 AM CST (1/5) 12:03 PM CST (1/5)
Length of Visible Light 10h 32m
Length of Day
9h 33m
Last Quarter, 44% of the Moon is Illuminated
Jan 5
Last Quarter
Jan 11
New
Jan 18
First Quarter
Jan 26
Full
Feb 3
Last Quarter

Hourly Weather History & Observations

Time (CST) Temp. Windchill Dew Point Humidity Pressure Visibility Wind Dir Wind Speed Gust Speed Precip Events Conditions
12:53 AM 30.0 °F 22.4 °F 24.1 °F 79% 30.23 in 10.0 mi South 8.1 mph - N/A   Mostly Cloudy
1:53 AM 33.1 °F 24.9 °F 26.1 °F 75% 30.22 in 10.0 mi SSW 10.4 mph - N/A   Overcast
2:53 AM 33.1 °F 26.1 °F 27.0 °F 78% 30.21 in 10.0 mi SSW 8.1 mph - N/A   Overcast
3:53 AM 35.1 °F 26.9 °F 28.0 °F 76% 30.19 in 10.0 mi South 11.5 mph - N/A   Overcast
4:53 AM 36.0 °F 29.0 °F 28.0 °F 73% 30.19 in 10.0 mi South 9.2 mph - N/A   Overcast
5:53 AM 35.1 °F 27.4 °F 28.0 °F 76% 30.18 in 10.0 mi South 10.4 mph - N/A   Overcast
7:53 AM 35.1 °F 27.4 °F 30.0 °F 82% 30.18 in 10.0 mi South 10.4 mph - N/A   Scattered Clouds
8:53 AM 35.1 °F 25.9 °F 28.9 °F 78% 30.17 in 10.0 mi South 13.8 mph - N/A   Overcast
9:53 AM 37.0 °F 28.1 °F 30.0 °F 76% 30.18 in 10.0 mi SSW 15.0 mph - N/A   Overcast
10:53 AM 39.9 °F 31.8 °F 30.9 °F 70% 30.18 in 10.0 mi SSW 15.0 mph - N/A   Overcast
11:53 AM 41.0 °F 33.1 °F 30.9 °F 67% 30.14 in 10.0 mi SSW 15.0 mph - N/A   Mostly Cloudy
12:53 PM 43.0 °F 36.8 °F 30.9 °F 62% 30.11 in 10.0 mi SW 11.5 mph 25.3 mph N/A   Overcast
1:53 PM 46.0 °F 39.0 °F 30.9 °F 56% 30.07 in 10.0 mi SW 17.3 mph 24.2 mph N/A   Mostly Cloudy
2:53 PM 46.0 °F 39.3 °F 30.9 °F 56% 30.07 in 10.0 mi WSW 16.1 mph - N/A   Clear
3:53 PM 45.0 °F 37.9 °F 30.9 °F 58% 30.09 in 10.0 mi West 16.1 mph - N/A   Partly Cloudy
4:53 PM 42.1 °F 34.9 °F 30.0 °F 62% 30.11 in 10.0 mi West 13.8 mph 25.3 mph N/A   Clear
5:53 PM 37.0 °F 28.9 °F 28.0 °F 70% 30.14 in 10.0 mi West 12.7 mph - N/A   Clear
6:53 PM 34.0 °F 25.5 °F 26.1 °F 73% 30.17 in 10.0 mi WNW 11.5 mph - N/A   Clear
7:53 PM 30.9 °F 22.2 °F 23.0 °F 72% 30.19 in 10.0 mi WNW 10.4 mph - N/A   Clear
8:53 PM 28.9 °F 21.1 °F 21.9 °F 75% 30.20 in 10.0 mi West 8.1 mph - N/A   Clear
9:53 PM 28.0 °F 20.0 °F 21.9 °F 78% 30.21 in 10.0 mi West 8.1 mph - N/A   Clear
10:53 PM 30.9 °F 21.7 °F 23.0 °F 72% 30.21 in 10.0 mi WNW 11.5 mph - N/A   Clear
11:53 PM 30.9 °F 21.2 °F 23.0 °F 72% 30.22 in 10.0 mi WNW 12.7 mph - N/A   Clear